Probability
0 0 0 0 0 0 0 0 0 0 0 0 0 0 0 0 0 0 0 0 0 0 0 0 0 0 0 0 0 0 0 0 0 0 0 0 0 0 0 0 0 0 0
0 0 0 0 0 0 0 0 0 0 0 0 0 0 0 0 0 0 0 0 0 0 0 0 0 0 0 0 0 0 0 0 0 0 0 0 0 0 0 0 0 0 0
0 0 0 0 0 0 0 0 0 0 0 0 0 0 0 0 0 0 0 0 0 0 0 0 0 0 0 0 0 0 0 0 0 0 0 0 0 0 0 0 0 0 0
0 0 0 0 0 0 0 0 0 0 0 0 0 0 0 0 0 0 0 0 0 0 0 0 0 0 0 0 0 0 0 0 0 0 0 0 0 0 0 0 0 0 0
0 0 0 0 0 0 0 0 0 0 0 0 0 0 0 0 0 0 0 0 0 0 0 0 0 0 0 0 0 0 0 0 0 0 0 0 0 0 0 0 0 0 0
0 0 1 2 2 2 1 1 1 0 0 0 0 0 0 0 0 0 0 0 0 0 0 0 0 0 0 0 0 0 0 0 0 0 0 0 0 0 0 0 0 0 0
0 0 1 3 4 4 5 4 3 1 0 0 0 0 0 0 0 0 0 0 0 0 0 0 0 0 0 0 0 0 0 0 0 0 0 0 0 0 0 0 0 0 0
0 0 0 1 2 4 5 6 6 3 1 0 0 0 0 0 0 0 0 0 0 0 0 0 0 0 0 0 0 0 0 0 0 0 0 0 0 0 0 0 0 0 0
0 0 0 0 0 1 3 4 4 3 1 0 0 0 0 0 0 0 0 0 0 0 0 0 0 0 0 0 0 0 0 0 0 0 0 0 0 0 0 0 0 0 0
0 0 0 0 0 0 0 1 1 1 1 0 1 1 0 0 0 0 0 0 0 0 0 0 0 0 0 0 0 0 0 0 0 0 0 0 0 0 0 0 0 0 0
0 0 0 0 0 0 0 0 1 1 0 0 1 1 1 1 0 0 0 0 0 0 0 0 0 0 0 0 0 0 0 0 0 0 0 0 0 0 0 0 0 0 0
0 0 0 0 0 0 0 0 1 1 1 0 0 2 3 2 1 1 1 0 0 0 0 0 0 0 0 0 0 0 0 0 0 0 0 0 0 0 0 0 0 0 0
0 0 0 0 0 0 1 1 1 1 1 1 1 3 4 5 4 4 3 3 3 3 2 1 1 0 0 0 0 0 0 0 0 0 0 0 0 0 0 0 0 0 0
0 0 0 0 0 0 1 2 1 1 1 1 2 2 4 8 9 8 9 9 9 9 6 4 3 1 0 0 0 0 0 0 0 0 0 0 0 0 0 0 0 0 0
0 0 0 0 0 0 1 1 1 1 1 1 1 1 3 7 11 14 15 15 15 15 11 7 4 2 0 0 0 0 0 0 0 0 0 0 0 0 0 0 0 0 0
0 0 0 0 0 0 0 0 0 0 0 0 0 0 1 5 11 16 19 20 21 20 15 10 6 5 4 3 1 0 0 0 0 0 0 0 0 0 0 0 0 0 0
0 0 0 0 0 0 0 0 0 0 0 0 0 0 0 2 8 14 20 24 28 27 21 16 14 13 11 8 3 1 0 0 0 0 0 0 0 0 0 0 0 0 0
0 0 0 0 0 0 0 0 0 0 0 0 0 0 0 0 3 10 19 25 31 34 30 25 24 23 21 15 7 3 2 1 1 0 0 0 0 0 0 0 0 0 0
0 0 0 0 0 0 0 0 0 0 0 0 0 0 0 0 2 7 14 18 26 37 41 36 33 33 31 23 13 6 4 2 1 0 0 0 0 0 0 0 0 0 0
0 0 0 0 0 0 0 0 0 0 0 0 0 0 0 0 2 5 7 10 21 38 48 45 40 39 38 32 22 14 8 4 2 1 1 0 0 0 0 0 0 0 0
0 0 0 0 0 0 0 0 0 0 0 0 0 0 0 0 1 3 4 7 20 38 46 46 45 45 44 41 35 25 14 5 2 3 2 1 0 0 0 0 0 0 0
0 0 0 0 0 0 0 0 0 0 0 0 0 0 0 0 1 2 4 7 17 30 35 37 43 48 48 47 45 34 18 7 4 3 2 2 2 2 1 0 0 0 0
0 0 0 0 0 0 0 0 0 0 0 0 0 0 0 0 1 3 4 5 10 17 22 25 32 40 45 47 46 38 22 12 9 5 2 2 4 6 5 3 1 0 0
0 0 0 0 0 0 0 0 0 0 0 0 0 0 0 0 1 2 3 4 5 8 12 15 19 27 35 41 45 41 29 20 14 9 5 2 3 7 10 9 6 4 2
0 0 0 0 0 0 0 0 0 0 0 0 0 0 0 0 1 1 1 2 2 4 6 9 11 17 25 32 40 43 40 30 19 13 10 6 5 7 11 16 18 15 14
0 0 0 0 0 0 0 0 0 0 0 0 0 0 0 0 0 0 0 1 1 2 3 5 8 13 19 26 34 43 47 37 22 15 13 10 8 6 10 19 26 27 26
Wind_Speed
6 8 10 7 7 7 6 6 6 6 5 5 5 5 4 4 3 3 2 2 2 2 2 2 3 3 4 4 4 4 5 5 5 4 4 5 4 5 5 4 2 6 8
7 8 9 7 7 6 6 5 5 5 5 5 5 4 4 4 3 3 2 2 2 2 2 2 2 2 3 3 3 3 3 3 3 3 2 4 5 4 4 3 4 6 6
6 7 9 6 6 6 6 6 6 6 5 5 5 5 4 4 4 3 3 3 2 2 2 2 1 2 2 2 1 2 2 2 2 1 4 2 5 5 3 3 4 5 5
5 5 5 5 4 4 5 6 6 6 6 6 5 5 5 5 4 4 4 3 3 3 2 2 2 1 1 0 1 1 1 0 1 4 4 1 2 6 2 3 4 4 4
3 2 5 2 1 2 3 4 5 5 6 6 6 6 6 6 6 5 5 4 4 4 3 3 2 2 1 1 0 1 1 1 2 6 1 1 2 4 2 2 3 3 4
3 3 5 5 4 4 4 4 5 6 6 7 7 8 8 7 7 7 6 6 5 5 4 4 3 3 2 2 1 1 1 1 6 1 0 1 2 4 2 2 2 3 3
5 5 6 10 9 8 7 7 7 7 8 8 9 9 9 9 9 8 7 7 6 6 5 4 4 4 3 2 2 2 2 3 4 0 2 1 3 2 2 2 2 2 3
8 7 7 10 11 11 10 9 9 8 9 9 10 10 10 10 10 9 9 8 8 7 6 5 5 4 4 3 3 3 2 6 3 2 2 2 4 1 1 2 2 2 3
7 7 7 8 8 9 10 10 10 10 9 9 10 11 11 11 11 11 10 10 9 8 8 7 6 5 5 4 4 4 3 4 5 3 3 2 4 2 1 1 2 2 2
7 6 6 5 6 7 7 8 10 10 10 9 10 10 10 11 11 11 12 11 11 10 9 8 7 7 6 5 5 5 4 6 6 4 3 5 4 2 2 1 1 2 2
7 7 6 6 5 6 6 6 7 7 7 7 7 8 8 8 9 9 11 9 10 11 11 10 9 8 8 8 6 5 6 7 5 4 2 7 3 3 2 2 2 2 2
8 8 7 6 6 6 5 4 4 4 4 5 5 6 5 5 6 8 6 9 11 12 12 11 10 10 10 8 10 8 7 8 6 5 4 6 4 4 4 3 3 2 2
9 9 9 8 8 7 5 5 4 4 4 5 5 5 5 5 5 5 4 5 8 11 9 9 10 9 8 6 5 7 7 6 5 5 5 7 5 6 6 5 4 4 3
9 10 10 10 9 8 8 6 6 5 4 5 5 7 5 4 5 5 4 5 5 4 6 6 6 8 8 8 8 8 8 6 5 4 5 8 6 7 7 6 6 5 5
10 10 10 10 10 9 8 6 6 6 6 6 5 6 7 5 5 5 5 5 5 5 6 6 6 7 7 7 7 8 9 9 8 7 5 8 7 8 8 7 7 7 7
10 10 10 11 10 10 8 8 7 7 6 6 6 6 7 6 6 6 6 6 6 5 5 5 7 6 5 5 7 8 8 8 8 8 7 8 10 8 8 9 9 9 8
11 11 10 10 10 10 10 9 7 6 7 6 6 7 7 7 7 6 6 6 6 5 6 5 6 6 6 5 6 8 7 8 8 9 9 6 8 11 10 10 9 9 9
10 10 10 8 10 10 9 8 7 6 6 6 6 6 7 7 8 6 6 6 5 5 5 5 5 5 6 6 5 5 5 6 9 9 8 8 7 7 11 12 10 9 9
9 10 10 10 10 10 10 8 7 6 6 5 5 5 6 8 8 7 6 6 6 5 6 6 6 6 6 6 6 5 5 5 7 8 10 10 9 8 7 12 12 10 9
8 9 9 9 10 10 8 7 6 6 5 5 5 5 7 6 7 7 6 7 6 5 6 6 7 7 5 6 6 6 5 4 5 6 8 8 9 10 10 9 10 11 11
8 9 9 10 10 8 7 7 7 7 6 6 5 7 7 7 7 7 6 6 6 6 7 7 6 7 6 5 5 5 4 6 6 6 7 8 9 9 9 9 9 7 9
8 9 10 10 10 9 7 7 6 7 6 6 6 6 7 7 7 6 6 6 6 6 7 7 6 6 5 6 6 4 5 6 7 8 7 7 9 8 10 11 11 10 7
7 8 8 9 9 9 9 7 6 6 5 5 7 6 7 7 7 6 6 6 6 6 6 7 7 9 7 7 7 6 5 6 4 5 8 7 8 7 9 10 12 12 11
8 8 8 8 8 8 8 8 9 7 7 7 6 6 7 7 7 7 7 6 6 5 6 7 7 7 8 7 6 7 6 3 4 4 4 6 8 9 10 9 11 11 11
7 6 7 7 7 7 7 7 7 7 6 6 6 7 7 6 7 8 7 6 6 5 6 6 7 8 7 8 6 6 7 6 7 4 4 5 6 7 8 9 8 9 10
5 5 5 6 6 6 7 7 7 8 8 8 8 8 7 6 6 9 8 7 6 5 5 6 6 8 8 9 8 7 7 7 8 8 7 6 6 5 7 7 8 8 8
Wind_Direction
156 150 136 158 155 154 153 153 153 154 154 153 153 153 154 158 160 161 161 160 157 147 136 125 120 109 99 90 82 78 76 72 72 79 88 95 99 104 99 99 147 106 93
148 149 136 161 160 163 164 167 172 175 174 175 175 175 176 175 175 181 186 190 187 181 174 159 145 130 113 100 83 77 75 73 72 73 93 134 117 111 110 89 16 80 102
147 148 152 163 168 173 178 185 191 193 192 193 195 196 196 194 193 196 203 211 212 207 200 195 187 158 134 106 68 61 67 76 88 92 253 197 123 119 122 115 98 101 111
140 149 139 134 183 192 196 199 201 203 205 206 209 211 211 211 210 213 216 222 224 222 216 218 222 212 188 141 38 32 41 81 128 239 239 77 111 111 129 135 132 124 119
118 120 91 78 247 239 232 226 221 219 220 221 223 222 221 220 221 224 226 230 232 233 231 231 241 242 229 218 267 322 329 181 210 248 349 29 71 106 128 139 145 140 135
82 54 59 25 355 327 295 271 257 246 240 238 235 232 229 226 225 227 231 235 236 237 237 238 250 252 246 240 249 277 288 220 233 241 331 233 109 116 153 144 145 152 147
40 28 32 26 9 352 332 311 290 271 259 252 248 244 239 234 231 229 232 237 238 240 242 241 247 253 250 248 250 261 265 253 262 200 217 173 79 99 175 167 160 156 158
41 30 27 33 22 9 358 344 328 309 288 271 262 255 249 242 237 232 232 235 237 238 242 243 243 249 247 247 248 250 253 266 215 204 193 133 82 144 172 175 168 155 159
44 38 24 15 9 5 358 355 349 336 321 302 284 268 258 252 246 238 234 233 234 235 237 240 240 241 245 245 245 245 246 268 264 215 195 136 116 191 179 159 168 152 152
44 37 27 13 3 353 342 344 344 339 333 324 304 287 268 258 251 243 239 230 234 236 234 234 236 237 239 240 238 238 238 241 239 214 206 119 129 204 193 172 156 141 143
32 22 15 3 354 338 322 329 329 323 325 318 303 294 277 258 255 243 240 231 233 238 237 234 232 233 235 221 222 226 231 234 208 232 201 104 166 211 200 187 180 170 164
13 8 3 349 338 326 318 317 303 298 295 291 293 299 287 268 263 261 257 241 242 241 239 235 233 230 232 217 189 201 226 224 215 214 158 130 199 213 206 202 197 190 183
359 359 354 343 336 331 321 309 303 291 284 275 273 272 273 269 254 250 252 240 240 237 235 221 220 230 227 223 227 214 223 234 223 214 158 152 202 215 210 205 205 199 195
357 353 347 341 336 332 327 318 301 293 291 287 280 279 271 261 255 248 240 248 250 247 242 239 233 226 237 227 220 231 215 224 229 222 155 157 203 217 214 209 210 207 204
354 348 350 340 336 333 327 311 305 303 297 291 280 274 272 266 259 251 247 237 238 241 239 236 238 235 239 253 242 238 234 220 227 223 178 168 203 218 216 212 212 210 210
351 349 349 341 340 333 327 320 316 309 297 290 284 277 273 267 262 261 253 242 233 233 240 240 237 232 231 242 252 242 243 232 226 223 224 182 194 210 214 212 213 211 212
351 349 353 340 342 338 334 328 316 309 305 301 294 287 277 270 267 259 261 252 238 229 234 239 241 232 220 214 234 249 243 239 230 222 220 217 196 196 203 207 210 212 215
353 350 352 348 344 343 339 328 320 316 314 304 300 296 290 280 271 269 262 258 247 235 227 225 231 226 217 206 212 226 242 237 236 234 226 216 217 202 190 196 200 205 214
353 347 352 355 347 347 341 330 325 322 319 313 310 307 303 294 284 273 269 266 256 240 231 228 222 224 219 210 211 211 227 238 241 231 231 225 213 213 207 174 190 199 208
352 349 354 355 353 350 345 338 339 336 332 331 327 325 320 306 297 287 271 265 263 249 237 232 233 225 221 210 212 210 212 228 254 249 246 238 228 211 214 190 187 196 204
356 352 355 356 358 355 353 348 346 345 341 345 344 343 328 319 311 294 285 279 270 259 251 240 234 227 219 207 202 209 214 226 240 249 249 247 234 223 215 209 206 197 189
351 349 353 360 358 357 356 345 340 340 337 348 343 342 341 334 325 307 293 281 268 264 258 248 236 234 222 203 204 200 209 212 223 233 240 244 246 221 221 217 210 204 209
346 349 348 355 353 359 356 349 346 351 343 358 354 352 349 347 341 327 315 300 285 270 262 257 245 236 231 217 214 208 206 212 190 204 228 235 245 245 228 223 220 208 207
347 344 343 352 356 359 354 360 357 356 355 351 346 350 352 2 1 351 335 321 301 284 275 265 254 249 243 233 221 224 232 220 194 190 207 226 237 238 237 227 227 221 209
337 340 339 347 351 357 356 358 349 0 354 351 352 358 360 7 6 3 350 339 325 307 290 277 271 257 246 241 231 220 222 223 226 217 204 199 219 230 232 235 230 229 219
333 338 339 342 349 353 349 353 359 355 353 356 358 358 355 360 0 7 354 348 340 329 311 294 278 264 256 249 241 232 222 214 213 214 218 205 209 213 220 229 236 229 224